Rolla, MO

8:21 PM CDT on April 23, 2018 (GMT -0500)
Rolla National

Weather History for KVIH - February, 2013

Change the Weather History Date:

Sunday, February 3, 2013

  Actual Average Record
Temperature  
Mean Temperature 36 °F 33 °F  
Max Temperature 41 °F 43 °F 75 °F (1962)
Min Temperature 31 °F 23 °F -12 °F (1996)
Degree Days  
Heating Degree Days 29 32  
Month to date heating degree days 109 97  
Since 1 July heating degree days 2837 3065  
Cooling Degree Days 0 0  
Month to date cooling degree days 0 0  
Year to date cooling degree days 0 0  
Moisture  
Dew Point 21 °F    
Average Humidity 58    
Maximum Humidity 82    
Minimum Humidity 34    
Precipitation  
Precipitation 0.00 in 0.06 in 0.99 in (2012)
Month to date precipitation T 0.19  
Year to date precipitation 2.47 2.36  
Sea Level Pressure  
Sea Level Pressure 30.10 in    
Wind  
Wind Speed 12 mph (West)    
Max Wind Speed 28 mph    
Max Gust Speed 38 mph    
Visibility 10 miles    
Events      
T = Trace of Precipitation, MM = Missing Value Source: NWS Daily Summary

Daily Weather History Graph

Daily Weather History Graph

Search for Another Location

Airport or City:

Astronomy

Feb. 03, 2013 Rise Set
Actual Time 7:09 AM CST 5:32 PM CST
Civil Twilight 6:42 AM CST 6:00 PM CST
Nautical Twilight 6:10 AM CST 6:31 PM CST
Astronomical Twilight 5:39 AM CST 7:02 PM CST
Moon 12:37 AM CST (2/3) 11:10 AM CST (2/3)
Length of Visible Light 11h 18m
Length of Day
10h 22m
Waning Gibbous, 48% of the Moon is Illuminated
Feb 3
Waning Gibbous
Feb 10
New
Feb 17
First Quarter
Feb 25
Full
Mar 4
Last Quarter

Hourly Weather History & Observations

Time (CST) Temp. Windchill Dew Point Humidity Pressure Visibility Wind Dir Wind Speed Gust Speed Precip Events Conditions
12:53 AM 39.9 °F 33.4 °F 30.9 °F 70% 30.05 in 10.0 mi West 10.4 mph - N/A   Overcast
1:53 AM 37.9 °F 30.9 °F 30.9 °F 76% 30.06 in 10.0 mi West 10.4 mph - N/A   Clear
2:53 AM 37.4 °F 29.3 °F 30.2 °F 75% 30.05 in 10.0 mi WNW 12.7 mph - N/A   Clear
3:53 AM 36.0 °F 28.0 °F 28.0 °F 73% 30.08 in 10.0 mi WNW 11.5 mph - N/A   Clear
4:53 AM 35.1 °F 27.4 °F 27.0 °F 72% 30.09 in 10.0 mi WNW 10.4 mph - N/A   Clear
5:53 AM 33.1 °F 23.9 °F 26.1 °F 75% 30.10 in 10.0 mi West 12.7 mph - N/A   Clear
6:53 AM 33.1 °F 22.6 °F 25.0 °F 72% 30.12 in 10.0 mi WNW 16.1 mph 28.8 mph N/A   Clear
7:53 AM 32.0 °F 19.5 °F 23.0 °F 69% 30.14 in 10.0 mi WNW 21.9 mph 35.7 mph N/A   Clear
8:53 AM 32.0 °F 19.2 °F 16.0 °F 52% 30.18 in 10.0 mi NW 23.0 mph 35.7 mph N/A   Clear
9:53 AM 33.1 °F 20.9 °F 17.1 °F 52% 30.21 in 10.0 mi NW 21.9 mph 32.2 mph N/A   Clear
10:53 AM 34.0 °F 22.1 °F 15.1 °F 46% 30.22 in 10.0 mi NW 21.9 mph 34.5 mph N/A   Clear
11:53 AM 37.0 °F 28.9 °F 16.0 °F 42% 30.22 in 10.0 mi NW 12.7 mph 25.3 mph N/A   Clear
12:53 PM 39.0 °F 32.3 °F 15.1 °F 38% 30.19 in 10.0 mi NW 10.4 mph - N/A   Clear
1:53 PM 41.0 °F 35.8 °F 16.0 °F 36% 30.16 in 10.0 mi North 8.1 mph - N/A   Clear
2:53 PM 41.0 °F 37.1 °F 15.1 °F 35% 30.15 in 10.0 mi WNW 5.8 mph - N/A   Clear
3:53 PM 39.9 °F - 15.1 °F 36% 30.13 in 10.0 mi Calm Calm - N/A   Clear
4:53 PM 39.9 °F 36.7 °F 17.1 °F 40% 30.12 in 10.0 mi SSW 4.6 mph - N/A   Clear
5:53 PM 36.0 °F 31.1 °F 17.1 °F 46% 30.09 in 10.0 mi SSE 5.8 mph - N/A   Clear
6:53 PM 33.1 °F 26.1 °F 19.0 °F 56% 30.08 in 10.0 mi SSE 8.1 mph - N/A   Clear
7:53 PM 36.0 °F 28.0 °F 19.0 °F 50% 30.06 in 10.0 mi South 11.5 mph - N/A   Clear
8:53 PM 37.9 °F 30.9 °F 19.9 °F 48% 30.03 in 10.0 mi South 10.4 mph - N/A   Clear
9:53 PM 39.0 °F 31.4 °F 21.0 °F 49% 30.01 in 10.0 mi South 12.7 mph - N/A   Clear
10:53 PM 39.9 °F 32.5 °F 21.0 °F 47% 29.98 in 10.0 mi South 12.7 mph - N/A   Clear
11:53 PM 39.9 °F 31.8 °F 21.0 °F 47% 29.95 in 10.0 mi South 15.0 mph - N/A   Clear